Location: *
(50.3517°N, 2.5914°E)
Time: 23:21:49
(UTC+00:00)

Daily predictions for brighter satellites

Satellite Brightness Start Highest point End
(mag) Time Altitude Azimuth Time Altitude Azimuth Time Altitude Azimuth
Cosmos 2221 2.6 16:26:36 10° S 16:30:56 85° W 16:35:21 10° N
Cosmos 1666 Rocket 4.1 16:26:54 10° N 16:30:58 37° ENE 16:34:59 10° SE
Radarsat Rocket 4.3 16:25:52 10° SSE 16:32:55 88° WSW 16:39:11 10° NNW
Cosmos 1371 Rocket 4.5 16:28:13 10° NNW 16:33:04 38° NE 16:37:53 10° SE
Helios 1A Rocket 3.4 16:29:07 10° S 16:33:15 70° WSW 16:37:25 10° NNW
Okean O Rocket 2.0 16:31:34 10° S 16:35:57 69° WSW 16:40:19 10° NNW
COSMO-SKYMED 1 4.5 16:35:21 10° ENE 16:36:50 11° E 16:38:17 10° ESE
Cosmos 1633 2.6 16:43:32 10° N 16:47:09 54° ENE 16:50:42 10° SSE
CZ-4B R/B 3.1 16:45:18 10° N 16:48:26 34° WNW 16:51:36 10° SW
Cosmos 1464 Rocket 4.0 16:45:50 10° N 16:51:57 61° ENE 16:58:00 10° SSE
CORIOLIS 4.2 16:46:47 10° SE 16:52:06 58° ENE 16:57:27 10° N
Cosmos 1356 Rocket 3.4 16:48:47 10° S 16:52:58 71° E 16:57:15 10° NNE
Cosmos 1680 Rocket 3.9 16:49:54 10° S 16:54:48 43° ESE 16:59:46 10° NE
Cosmos 2369 Rocket 4.4 16:54:58 10° NW 16:57:36 13° NNW 17:00:14 10° N
NOAA 12 4.3 16:53:46 10° SE 16:58:54 50° ENE 17:04:02 10° N
Cosmos 1470 Rocket 4.1 16:58:17 10° N 17:02:28 37° ENE 17:06:38 10° SE
YAOGAN 1 3.8 16:59:34 10° ESE 17:02:50 21° ENE 17:06:06 10° NNE
ALOS 4.1 16:59:45 10° SSW 17:04:00 35° W 17:08:19 10° NNW
PSLV R/B 3.9 16:59:46 10° NNE 17:04:02 82° ESE 17:08:14 10° SSW
Cosmos 1072 Rocket 4.4 16:57:52 10° N 17:04:03 80° E 17:10:16 10° SSE
Cosmos 724 4.5 16:58:28 10° NW 17:04:21 78° SW 17:10:06 10° SSE
CZ-4 R/B 2.4 17:01:08 10° ESE 17:04:27 24° ENE 17:07:43 10° N
SMAP 3.0 17:02:37 10° SSE 17:07:17 86° ENE 17:11:59 10° NNW
AQUARIUS 4.1 17:03:00 10° SSE 17:07:29 79° ENE 17:12:01 10° NNW
Cosmos 1980 Rocket 2.7 17:03:50 10° S 17:09:05 40° ESE 17:14:10 11° NE
ASTEX 1 4.3 17:04:20 10° N 17:09:11 51° WNW 17:13:59 10° SSW
USA 215 3.7 17:04:32 13° ENE 17:10:11 50° N 17:16:26 10° WNW
Cosmos 1862 3.2 17:06:36 10° N 17:10:36 80° E 17:14:36 10° SSE
ERBS 2.6 17:07:52 10° WSW 17:11:08 56° NNW 17:13:28 18° NE
SL-16 R/B 3.8 17:08:39 10° SE 17:11:32 14° E 17:12:09 14° E
Cosmos 2297 Rocket 4.2 17:08:48 10° NW 17:13:44 32° WSW 17:18:39 10° SSW
Cosmos 2227 Rocket 4.1 17:09:44 10° NW 17:14:46 34° WSW 17:19:46 10° SSW
Cosmos 1933 4.5 17:12:12 10° SE 17:15:27 23° E 17:17:21 17° NE
Lacrosse 4 Rocket 1.5 17:12:08 10° SW 17:16:11 72° NW 17:19:57 12° NNE
Cosmos 2322 Rocket 3.8 17:14:45 10° SE 17:17:03 13° E 17:17:03 13° E
NOSS 2-3 (E) 3.8 17:16:19 10° SSW 17:20:43 71° SE 17:24:53 16° NE
Cosmos 923 Rocket 4.0 17:16:43 10° SSW 17:21:56 88° ESE 17:27:11 10° NNE
SeaSat 1 2.6 17:17:56 10° SE 17:22:43 54° NE 17:27:32 10° NNW
Cosmos 1624 Rocket 4.0 17:17:40 10° NNW 17:23:03 78° ENE 17:28:23 10° SSE
USA 229 DEB 4.0 17:17:50 10° WSW 17:24:24 63° NW 17:30:48 12° NE
USA 229 4.0 17:17:56 10° WSW 17:24:30 63° NW 17:30:53 13° NE
Cosmos 2056 Rocket 3.4 17:19:23 10° NNW 17:24:32 77° ENE 17:29:44 10° SSE
SKYMED 2 4.3 17:22:17 14° NE 17:25:29 31° E 17:29:22 10° SSE
BREEZE-M DEB (TANK) 2.8 17:17:11 10° W 17:25:59 81° S 17:27:57 23° E
NOSS 3-1 (C) 3.8 17:20:50 10° WSW 17:26:30 62° NW 17:32:29 13° NE
Cosmos 2263 Rocket 2.3 17:21:57 10° NNW 17:27:25 51° NE 17:32:49 10° SE
NOSS 3-1 (A) 3.5 17:23:48 10° SW 17:29:29 80° NW 17:35:10 15° NE
NOSS 2-3 (D) 3.7 17:26:05 10° SW 17:30:30 78° SE 17:34:17 19° NE
YAOGAN 6 2.6 17:31:30 10° SSE 17:34:51 48° ENE 17:38:14 10° N
H-2A R/B 3.5 17:31:15 10° S 17:34:59 54° W 17:38:44 10° NNW
Timation 1 Rocket 4.3 17:34:11 10° NNW 17:40:07 61° NE 17:46:02 10° SE
H-2A R/B 4.1 17:43:10 12° NNE 17:43:10 12° NNE 17:43:51 10° NNE
Cosmos 2369 4.0 17:39:27 10° SW 17:45:06 67° WNW 17:50:39 11° NNE
Cosmos 1697 Rocket 2.9 17:40:14 10° SW 17:45:52 70° WNW 17:51:13 12° NNE
CENTAUR R/B 3.6 17:40:23 10° NW 17:47:22 40° NNE 17:51:27 25° ENE
COBE Rocket 3.8 17:43:15 10° N 17:48:03 82° WNW 17:52:42 10° SSW
Envisat 3.1 17:44:34 10° SSE 17:49:40 81° WSW 17:54:47 10° NNW
Cosmos 1400 Rocket 4.4 17:47:44 10° SSE 17:49:31 21° SE 17:49:31 21° SE
Cosmos 1151 Rocket 3.0 17:47:21 10° S 17:51:44 88° WNW 17:56:10 10° N
Cosmos 1633 Rocket 4.3 17:47:33 10° NNW 17:51:46 44° W 17:55:58 10° SSW
Cosmos 2034 Rocket 4.3 17:46:37 10° NNW 17:52:58 71° W 17:59:18 10° S
Okean-O 3.4 17:51:00 10° S 17:55:20 54° W 17:59:43 10° NNW
Gblst 52 Del rocket 4.5 17:48:26 10° WNW 17:55:29 88° NNE 17:58:48 30° ESE
Cosmos 158 Rocket 3.9 17:53:14 10° SSW 17:58:30 81° ESE 18:02:06 20° NNE
Cosmos 2278 4.0 17:56:38 10° SW 18:02:18 67° WNW 18:07:05 15° NNE
GENESIS II 4.4 17:58:54 10° SSW 18:02:51 55° SE 18:03:14 52° ESE
Cosmos 1420 Rocket 3.8 17:58:25 10° NNW 18:03:38 79° ENE 18:08:49 10° SSE
Cosmos 2360 4.3 17:58:01 10° SW 18:03:44 76° WNW 18:08:09 18° NNE
FengYun 1-2 T 4.3 18:00:29 10° SSE 18:05:59 79° WSW 18:11:31 10° NNW
Cosmos 1328 Rocket 4.1 18:03:30 10° SSW 18:07:51 57° WNW 18:12:11 10° N
NOSS 2-3 (C) 4.2 18:03:52 10° WSW 18:08:22 60° NW 18:11:05 28° NNE
Cosmos 1634 Rocket 3.8 18:02:09 10° N 18:08:22 73° E 18:14:30 10° SSE
Cosmos 1844 Rocket 3.5 18:03:46 10° NNW 18:08:24 30° NE 18:08:24 30° NE
Cosmos 1933 Rocket 3.8 18:05:37 10° NNW 18:09:57 68° W 18:14:17 10° S
ATLAS 3B R/B 3.3 18:05:18 10° NW 18:11:24 36° NNE 18:12:57 32° NE
Geosat 3.9 18:10:04 35° NE 18:12:14 72° ESE 18:17:15 10° SSW
Cosmos 1452 Rocket 3.4 18:07:36 10° NNW 18:12:56 76° ENE 18:16:36 20° SSE
COSMO-SKYMED 1 2.5 18:10:49 22° NNE 18:13:40 90° SE 18:18:00 10° SSW
Cosmos 2228 Rocket 3.0 18:09:52 10° S 18:14:20 72° E 18:16:06 36° NNE
Cosmos 1515 Rocket 3.6 18:10:17 10° SSW 18:14:39 76° WNW 18:18:15 15° N
USA 238 DEB 3.8 18:08:13 10° NW 18:15:20 67° NE 18:18:44 34° ESE
USA 238 3.8 18:08:20 10° NW 18:15:26 66° NE 18:18:47 34° ESE
Cosmos 44 3.4 18:11:13 10° NNW 18:15:05 46° NNE 18:15:05 46° NNE
USA 116 4.2 18:14:06 31° NNE 18:16:24 67° ESE 18:21:37 10° S
NOSS 3-2 (A) 4.0 18:10:52 10° NW 18:18:05 65° NE 18:21:46 34° ESE
Cosmos 2278 Rocket 4.1 18:15:09 10° N 18:17:40 15° NNE 18:17:40 15° NNE
SWAS 4.5 18:14:38 10° NNW 18:18:40 60° NNE 18:18:40 60° NNE
Cosmos 2142 Rocket 4.4 18:13:06 10° N 18:19:31 69° ENE 18:25:50 10° SSE
COSMOS 2455 3.8 18:15:58 10° S 18:19:46 29° SE 18:19:46 29° SE
APEX 4.0 18:19:25 10° WSW 18:22:08 35° WNW 18:22:08 35° WNW
CSL-04 Debris 4.3 18:18:20 10° SSE 18:23:49 78° WSW 18:29:21 10° NNW
Cosmos 2279 Rocket 3.9 18:17:56 10° N 18:24:06 61° ENE 18:30:17 10° SSE
Tsikada Rocket 4.2 18:19:29 10° SSW 18:25:52 73° WNW 18:32:20 10° N
NOAA 11 4.0 18:20:37 10° SSE 18:26:02 80° ENE 18:31:31 10° NNW
Cosmos 1606 3.0 18:28:30 10° SSW 18:32:01 62° W 18:32:01 62° W
SL-8 R/B 4.1 18:27:36 10° SW 18:32:05 48° SSE 18:32:05 48° SSE
Ariane Rocket 2.9 18:32:52 64° NE 18:32:52 64° NE 18:37:38 10° N
CSL-04 Rocket 3.9 18:28:02 10° S 18:33:19 67° WSW 18:38:36 10° NNW
YAOGAN 1 3.3 18:34:23 10° S 18:38:36 52° W 18:42:52 10° NNW
CZ-4 R/B 2.8 18:35:29 10° SSW 18:39:19 38° W 18:43:07 10° NNW
Cosmos 1939 Rocket 4.2 18:42:28 33° NNW 18:42:28 33° NNW 18:44:47 10° NNW
Meteor 1-26 Rocket 4.2 18:35:00 10° S 18:40:59 90° ESE 18:45:50 16° NNE
GEOS 3 Rocket 3.5 18:41:59 64° NNE 18:42:49 85° NW 18:48:06 10° SW
Cosmos 2360 Rocket 4.5 18:42:15 10° SSE 18:42:22 10° SSE 18:42:22 10° SSE
USA 215 3.2 18:51:53 60° ENE 18:52:46 67° NNE 18:59:14 10° WNW
Cosmos 1980 Rocket 3.2 18:47:41 10° WSW 18:53:05 43° NW 18:55:57 25° N
SL-16 R/B 2.2 18:49:02 10° SSW 18:54:04 69° S 18:54:04 69° S
Lacrosse 4 Rocket 3.8 18:53:08 10° WNW 18:55:36 15° NNW 18:56:17 15° NNW
Cosmos 2180 Rocket 4.3 18:50:52 10° N 18:57:04 82° E 18:57:39 74° SE
Cosmos 2322 Rocket 2.6 18:54:50 10° SSW 18:58:55 50° S 18:58:55 50° S
SeaSat 1 4.3 18:56:13 10° S 19:00:28 29° WSW 19:04:45 10° NW
NOSS 3-2 (C) 3.8 18:58:00 10° NW 19:05:21 77° NE 19:06:16 69° E
Cosmos 2263 Rocket 3.8 19:06:15 10° NW 19:11:07 32° WSW 19:15:58 10° SSW
H-2A R/B 4.2 19:23:47 17° N 19:23:47 17° N 19:24:58 10° N
CENTAUR R/B 3.0 19:31:13 10° NW 19:38:39 81° NNW 19:38:39 81° NNW
Cosmos 1844 Rocket 4.3 19:47:26 10° NW 19:50:05 28° NW 19:50:05 28° NW
ATLAS 2AS CENTAUR R/B 4.5 19:54:33 10° SSW 19:57:20 24° SSW 19:57:20 24° SSW
ATLAS 3B R/B 3.6 19:56:05 10° NW 20:00:13 41° NW 20:00:13 41° NW
